Time,TemperatureF,DewpointF,PressureIn,WindDirection,WindDirectionDegrees,WindSpeedMPH,WindSpeedGustMPH,Humidity,HourlyPrecipIn,Conditions,Clouds,dailyrainin,SoftwareType,DateUTC
2013-06-24 00:01:00,82.4,60.7,30.41,North,0,0.0,0.0,48,0.00,CLR,SCT,0.00,WeatherDisplay:10.37,2013-06-24 04:01:00,
2013-06-24 00:06:00,82.4,60.7,30.41,North,0,0.0,0.0,48,0.00,CLR,SCT,0.00,WeatherDisplay:10.37,2013-06-24 04:06:00,
2013-06-24 00:11:00,82.6,61.5,30.41,North,0,0.0,0.0,49,0.00,CLR,SCT,0.00,WeatherDisplay:10.37,2013-06-24 04:11:00,
2013-06-24 00:16:00,82.4,61.3,30.41,North,0,0.0,0.0,49,0.00,CLR,SCT,0.00,WeatherDisplay:10.37,2013-06-24 04:16:00,
2013-06-24 00:21:00,82.4,61.3,30.41,North,0,0.0,0.0,49,0.00,CLR,SCT,0.00,WeatherDisplay:10.37,2013-06-24 04:21:00,
2013-06-24 00:26:00,82.4,61.9,30.41,North,0,0.0,0.0,50,0.00,CLR,SCT,0.00,WeatherDisplay:10.37,2013-06-24 04:26:00,
2013-06-24 00:31:00,82.6,62.1,30.41,North,0,0.0,0.0,50,0.00,CLR,SCT,0.00,WeatherDisplay:10.37,2013-06-24 04:31:00,
2013-06-24 00:36:00,82.4,61.9,30.42,North,0,0.0,0.0,50,0.00,CLR,SCT,0.00,WeatherDisplay:10.37,2013-06-24 04:36:00,
2013-06-24 00:41:00,82.2,61.2,30.42,North,0,0.0,0.0,49,0.00,CLR,SCT,0.00,WeatherDisplay:10.37,2013-06-24 04:41:00,
2013-06-24 00:46:00,82.0,60.4,30.42,North,0,0.0,0.0,48,0.00,CLR,SCT,0.00,WeatherDisplay:10.37,2013-06-24 04:46:00,
2013-06-24 00:51:00,82.0,61.0,30.42,North,0,0.0,0.0,49,0.00,CLR,SCT,0.00,WeatherDisplay:10.37,2013-06-24 04:51:00,
2013-06-24 00:56:00,82.0,61.6,30.41,North,0,0.0,0.0,50,0.00,CLR,SCT,0.00,WeatherDisplay:10.37,2013-06-24 04:56:00,
2013-06-24 01:01:00,82.0,62.1,30.41,North,0,0.0,0.0,51,0.00,CLR,SCT,0.00,WeatherDisplay:10.37,2013-06-24 05:01:00,
2013-06-24 01:06:00,81.7,62.3,30.41,North,0,0.0,0.0,52,0.00,CLR,SCT,0.00,WeatherDisplay:10.37,2013-06-24 05:06:00,
2013-06-24 01:11:00,81.3,64.6,30.41,North,0,0.0,0.0,57,0.00,CLR,SCT,0.00,WeatherDisplay:10.37,2013-06-24 05:11:00,
2013-06-24 01:16:00,81.3,64.1,30.40,North,0,0.0,0.0,56,0.00,CLR,SCT,0.00,WeatherDisplay:10.37,2013-06-24 05:16:00,
2013-06-24 01:21:00,81.1,63.4,30.40,North,0,0.0,0.0,55,0.00,CLR,SCT,0.00,WeatherDisplay:10.37,2013-06-24 05:21:00,
2013-06-24 01:26:00,81.1,62.9,30.40,North,0,0.0,0.0,54,0.00,CLR,SCT,0.00,WeatherDisplay:10.37,2013-06-24 05:26:00,
2013-06-24 01:31:00,81.1,62.9,30.40,North,0,0.0,0.0,54,0.00,CLR,SCT,0.00,WeatherDisplay:10.37,2013-06-24 05:31:00,
2013-06-24 01:36:00,81.0,62.2,30.40,North,0,0.0,0.0,53,0.00,CLR,SCT,0.00,WeatherDisplay:10.37,2013-06-24 05:36:00,
2013-06-24 01:42:00,80.8,63.1,30.40,North,0,0.0,0.0,55,0.00,CLR,SCT,0.00,WeatherDisplay:10.37,2013-06-24 05:42:00,
2013-06-24 01:47:00,80.4,63.3,30.40,North,0,0.0,0.0,56,0.00,CLR,SCT,0.00,WeatherDisplay:10.37,2013-06-24 05:47:00,
2013-06-24 01:52:00,80.4,63.3,30.40,North,0,0.0,0.0,56,0.00,CLR,SCT,0.00,WeatherDisplay:10.37,2013-06-24 05:52:00,
2013-06-24 01:57:00,80.4,62.2,30.40,North,0,0.0,0.0,54,0.00,CLR,SCT,0.00,WeatherDisplay:10.37,2013-06-24 05:57:00,
2013-06-24 02:02:00,80.4,62.2,30.40,North,0,0.0,0.0,54,0.00,CLR,SCT,0.00,WeatherDisplay:10.37,2013-06-24 06:02:00,
2013-06-24 02:07:00,80.2,62.1,30.40,North,0,0.0,0.0,54,0.00,CLR,SCT,0.00,WeatherDisplay:10.37,2013-06-24 06:07:00,
2013-06-24 02:13:00,80.2,62.6,30.40,North,0,0.0,0.0,55,0.00,CLR,SCT,0.00,WeatherDisplay:10.37,2013-06-24 06:13:00,
2013-06-24 02:19:00,80.2,62.6,30.39,North,0,0.0,0.0,55,0.00,CLR,SCT,0.00,WeatherDisplay:10.37,2013-06-24 06:19:00,
2013-06-24 02:24:00,80.4,62.2,30.39,North,0,0.0,0.0,54,0.00,CLR,SCT,0.00,WeatherDisplay:10.37,2013-06-24 06:24:00,
2013-06-24 02:29:00,80.4,63.3,30.39,North,0,0.0,0.0,56,0.00,CLR,SCT,0.00,WeatherDisplay:10.37,2013-06-24 06:29:00,
2013-06-24 02:34:00,80.4,63.8,30.39,North,0,0.0,0.0,57,0.00,CLR,SCT,0.00,WeatherDisplay:10.37,2013-06-24 06:34:00,
2013-06-24 02:39:00,80.4,63.3,30.38,North,0,0.0,0.0,56,0.00,CLR,SCT,0.00,WeatherDisplay:10.37,2013-06-24 06:39:00,
2013-06-24 02:44:00,80.4,63.3,30.38,North,0,0.0,0.0,56,0.00,CLR,SCT,0.00,WeatherDisplay:10.37,2013-06-24 06:44:00,
2013-06-24 02:49:00,80.6,62.9,30.38,North,0,0.0,0.0,55,0.00,CLR,SCT,0.00,WeatherDisplay:10.37,2013-06-24 06:49:00,
2013-06-24 02:54:00,80.6,63.5,30.37,North,0,0.0,0.0,56,0.00,CLR,SCT,0.00,WeatherDisplay:10.37,2013-06-24 06:54:00,
2013-06-24 02:59:00,80.6,63.5,30.37,North,0,0.0,0.0,56,0.00,CLR,SCT,0.00,WeatherDisplay:10.37,2013-06-24 06:59:00,
2013-06-24 03:04:00,80.6,62.9,30.37,North,0,0.0,0.0,55,0.00,CLR,SCT,0.00,WeatherDisplay:10.37,2013-06-24 07:04:00,
2013-06-24 03:09:00,80.8,63.6,30.37,North,0,0.0,0.0,56,0.00,CLR,SCT,0.00,WeatherDisplay:10.37,2013-06-24 07:09:00,
2013-06-24 03:14:00,80.8,63.6,30.37,North,0,0.0,0.0,56,0.00,CLR,SCT,0.00,WeatherDisplay:10.37,2013-06-24 07:14:00,
2013-06-24 03:20:00,80.8,62.1,30.37,North,0,0.0,0.0,53,0.00,CLR,SCT,0.00,WeatherDisplay:10.37,2013-06-24 07:20:00,
2013-06-24 03:25:00,80.8,62.1,30.37,North,0,0.0,0.0,53,0.00,CLR,SCT,0.00,WeatherDisplay:10.37,2013-06-24 07:25:00,
2013-06-24 03:30:00,80.8,61.5,30.37,North,0,0.0,0.0,52,0.00,CLR,SCT,0.00,WeatherDisplay:10.37,2013-06-24 07:30:00,
2013-06-24 03:35:00,81.0,61.7,30.37,North,0,0.0,0.0,52,0.00,CLR,SCT,0.00,WeatherDisplay:10.37,2013-06-24 07:35:00,
2013-06-24 03:40:00,81.1,61.8,30.37,North,0,0.0,0.0,52,0.00,CLR,SCT,0.00,WeatherDisplay:10.37,2013-06-24 07:40:00,
2013-06-24 03:46:00,81.0,61.7,30.37,North,0,0.0,0.0,52,0.00,CLR,SCT,0.00,WeatherDisplay:10.37,2013-06-24 07:46:00,
2013-06-24 03:51:00,81.0,61.1,30.37,North,0,0.0,0.0,51,0.00,CLR,SCT,0.00,WeatherDisplay:10.37,2013-06-24 07:51:00,
2013-06-24 03:56:00,81.0,61.1,30.37,North,0,0.0,0.0,51,0.00,CLR,SCT,0.00,WeatherDisplay:10.37,2013-06-24 07:56:00,
2013-06-24 04:01:00,80.8,60.4,30.37,North,0,0.0,0.0,50,0.00,CLR,SCT,0.00,WeatherDisplay:10.37,2013-06-24 08:01:00,
2013-06-24 04:06:00,80.8,61.0,30.37,North,0,0.0,0.0,51,0.00,CLR,SCT,0.00,WeatherDisplay:10.37,2013-06-24 08:06:00,
2013-06-24 04:12:00,81.0,61.7,30.37,North,0,0.0,0.0,52,0.00,CLR,SCT,0.00,WeatherDisplay:10.37,2013-06-24 08:12:00,
2013-06-24 04:18:00,81.0,61.7,30.36,North,0,0.0,0.0,52,0.00,CLR,SCT,0.00,WeatherDisplay:10.37,2013-06-24 08:18:00,
2013-06-24 04:23:00,81.0,61.7,30.36,North,0,0.0,0.0,52,0.00,CLR,SCT,0.00,WeatherDisplay:10.37,2013-06-24 08:23:00,
2013-06-24 04:28:00,80.8,61.5,30.36,North,0,0.0,0.0,52,0.00,CLR,SCT,0.00,WeatherDisplay:10.37,2013-06-24 08:28:00,
2013-06-24 04:33:00,80.8,62.1,30.36,North,0,0.0,0.0,53,0.00,CLR,SCT,0.00,WeatherDisplay:10.37,2013-06-24 08:33:00,
2013-06-24 04:38:00,80.8,62.6,30.36,North,0,0.0,0.0,54,0.00,CLR,SCT,0.00,WeatherDisplay:10.37,2013-06-24 08:38:00,
2013-06-24 04:44:00,80.8,62.6,30.36,North,0,0.0,0.0,54,0.00,CLR,SCT,0.00,WeatherDisplay:10.37,2013-06-24 08:44:00,
2013-06-24 04:49:00,81.0,62.7,30.36,North,0,0.0,0.0,54,0.00,CLR,SCT,0.00,WeatherDisplay:10.37,2013-06-24 08:49:00,
2013-06-24 04:54:00,81.0,61.7,30.36,North,0,0.0,0.0,52,0.00,CLR,SCT,0.00,WeatherDisplay:10.37,2013-06-24 08:54:00,
2013-06-24 04:59:00,80.8,61.0,30.37,North,0,0.0,0.0,51,0.00,CLR,SCT,0.00,WeatherDisplay:10.37,2013-06-24 08:59:00,
2013-06-24 05:04:00,80.8,60.4,30.37,North,0,0.0,0.0,50,0.00,CLR,SCT,0.00,WeatherDisplay:10.37,2013-06-24 09:04:00,
2013-06-24 05:10:00,81.0,61.1,30.37,North,0,0.0,0.0,51,0.00,CLR,SCT,0.00,WeatherDisplay:10.37,2013-06-24 09:10:00,
2013-06-24 05:15:00,81.0,60.6,30.36,North,0,0.0,0.0,50,0.00,CLR,SCT,0.00,WeatherDisplay:10.37,2013-06-24 09:15:00,
2013-06-24 05:20:00,81.0,60.6,30.36,North,0,0.0,0.0,50,0.00,CLR,SCT,0.00,WeatherDisplay:10.37,2013-06-24 09:20:00,
2013-06-24 05:25:00,80.8,60.4,30.36,North,0,0.0,0.0,50,0.00,CLR,SCT,0.00,WeatherDisplay:10.37,2013-06-24 09:25:00,
2013-06-24 05:30:00,80.8,60.4,30.36,North,0,0.0,0.0,50,0.00,CLR,SCT,0.00,WeatherDisplay:10.37,2013-06-24 09:30:00,
2013-06-24 05:35:00,80.8,60.4,30.37,North,0,0.0,0.0,50,0.00,CLR,SCT,0.00,WeatherDisplay:10.37,2013-06-24 09:35:00,
2013-06-24 05:40:00,80.8,60.4,30.37,North,0,0.0,0.0,50,0.00,CLR,SCT,0.00,WeatherDisplay:10.37,2013-06-24 09:40:00,
2013-06-24 05:45:00,80.6,60.2,30.37,North,0,0.0,0.0,50,0.00,CLR,SCT,0.00,WeatherDisplay:10.37,2013-06-24 09:45:00,
2013-06-24 05:51:00,80.8,60.4,30.37,North,0,0.0,0.0,50,0.00,CLR,SCT,0.00,WeatherDisplay:10.37,2013-06-24 09:51:00,
2013-06-24 05:56:00,80.8,60.4,30.37,North,0,0.0,0.0,50,0.00,CLR,SCT,0.00,WeatherDisplay:10.37,2013-06-24 09:56:00,
2013-06-24 06:01:00,80.8,61.0,30.37,North,0,0.0,0.0,51,0.00,CLR,SCT,0.00,WeatherDisplay:10.37,2013-06-24 10:01:00,
2013-06-24 06:07:00,80.6,60.2,30.37,North,0,0.0,0.0,50,0.00,CLR,SCT,0.00,WeatherDisplay:10.37,2013-06-24 10:07:00,
2013-06-24 06:12:00,80.6,60.2,30.37,North,0,0.0,0.0,50,0.00,CLR,SCT,0.00,WeatherDisplay:10.37,2013-06-24 10:12:00,
2013-06-24 06:18:00,80.4,60.1,30.38,North,0,0.0,0.0,50,0.00,CLR,SCT,0.00,WeatherDisplay:10.37,2013-06-24 10:18:00,
2013-06-24 06:23:00,80.4,60.1,30.38,North,0,0.0,0.0,50,0.00,CLR,SCT,0.00,WeatherDisplay:10.37,2013-06-24 10:23:00,
2013-06-24 06:28:00,80.6,60.2,30.38,North,0,0.0,0.0,50,0.00,CLR,SCT,0.00,WeatherDisplay:10.37,2013-06-24 10:28:00,
2013-06-24 06:33:00,80.6,60.2,30.38,North,0,0.0,0.0,50,0.00,CLR,SCT,0.00,WeatherDisplay:10.37,2013-06-24 10:33:00,
2013-06-24 06:39:00,80.4,60.6,30.38,North,0,0.0,0.0,51,0.00,CLR,SCT,0.00,WeatherDisplay:10.37,2013-06-24 10:39:00,
2013-06-24 06:44:00,80.4,60.1,30.38,North,0,0.0,0.0,50,0.00,CLR,SCT,0.00,WeatherDisplay:10.37,2013-06-24 10:44:00,
2013-06-24 06:49:00,80.6,60.2,30.38,North,0,0.0,0.0,50,0.00,CLR,SCT,0.00,WeatherDisplay:10.37,2013-06-24 10:49:00,
2013-06-24 06:54:00,80.6,60.2,30.38,North,0,0.0,0.0,50,0.00,CLR,SCT,0.00,WeatherDisplay:10.37,2013-06-24 10:54:00,
2013-06-24 06:59:00,80.8,60.4,30.39,North,0,0.0,0.0,50,0.00,CLR,SCT,0.00,WeatherDisplay:10.37,2013-06-24 10:59:00,
2013-06-24 07:05:00,81.0,61.1,30.39,North,0,0.0,0.0,51,0.00,CLR,SCT,0.00,WeatherDisplay:10.37,2013-06-24 11:05:00,
2013-06-24 07:11:00,81.1,61.3,30.39,North,0,0.0,0.0,51,0.00,CLR,SCT,0.00,WeatherDisplay:10.37,2013-06-24 11:11:00,
2013-06-24 07:16:00,81.3,61.5,30.40,North,0,0.0,0.0,51,0.00,CLR,SCT,0.00,WeatherDisplay:10.37,2013-06-24 11:16:00,
2013-06-24 07:21:00,81.3,61.5,30.40,North,0,0.0,0.0,51,0.00,CLR,SCT,0.00,WeatherDisplay:10.37,2013-06-24 11:21:00,
2013-06-24 07:26:00,81.3,61.5,30.40,North,0,0.0,0.0,51,0.00,CLR,SCT,0.00,WeatherDisplay:10.37,2013-06-24 11:26:00,
2013-06-24 07:31:00,81.5,61.6,30.40,North,0,0.0,0.0,51,0.00,CLR,SCT,0.00,WeatherDisplay:10.37,2013-06-24 11:31:00,
2013-06-24 07:36:00,81.5,61.1,30.40,North,0,0.0,0.0,50,0.00,CLR,SCT,0.00,WeatherDisplay:10.37,2013-06-24 11:36:00,
2013-06-24 07:41:00,81.7,60.7,30.40,North,0,0.0,0.0,49,0.00,CLR,SCT,0.00,WeatherDisplay:10.37,2013-06-24 11:41:00,
2013-06-24 07:46:00,81.9,61.4,30.40,North,0,0.0,0.0,50,0.00,CLR,SCT,0.00,WeatherDisplay:10.37,2013-06-24 11:46:00,
2013-06-24 07:52:00,82.0,61.6,30.40,North,0,0.0,0.0,50,0.00,CLR,SCT,0.00,WeatherDisplay:10.37,2013-06-24 11:52:00,
2013-06-24 07:58:00,82.2,61.7,30.40,North,0,0.0,0.0,50,0.00,CLR,SCT,0.00,WeatherDisplay:10.37,2013-06-24 11:58:00,
2013-06-24 08:03:00,82.4,61.3,30.40,North,0,0.0,0.0,49,0.00,CLR,SCT,0.00,WeatherDisplay:10.37,2013-06-24 12:03:00,
2013-06-24 08:08:00,82.6,61.5,30.40,North,0,0.0,0.0,49,0.00,CLR,SCT,0.00,WeatherDisplay:10.37,2013-06-24 12:08:00,
2013-06-24 08:14:00,83.1,62.0,30.40,North,0,0.0,0.0,49,0.00,CLR,SCT,0.00,WeatherDisplay:10.37,2013-06-24 12:14:00,
2013-06-24 08:19:00,83.3,61.6,30.43,North,0,0.0,0.0,48,0.00,CLR,SCT,0.00,WeatherDisplay:10.37,2013-06-24 12:19:00,
2013-06-24 08:25:00,83.5,62.3,30.43,North,0,0.0,0.0,49,0.00,CLR,SCT,0.00,WeatherDisplay:10.37,2013-06-24 12:25:00,
2013-06-24 08:30:00,83.7,61.9,30.43,North,0,0.0,0.0,48,0.00,CLR,SCT,0.00,WeatherDisplay:10.37,2013-06-24 12:30:00,
2013-06-24 08:35:00,83.7,61.3,30.45,North,0,0.0,0.0,47,0.00,CLR,SCT,0.00,WeatherDisplay:10.37,2013-06-24 12:35:00,
2013-06-24 08:41:00,83.8,61.5,30.45,North,0,0.0,0.0,47,0.00,CLR,SCT,0.00,WeatherDisplay:10.37,2013-06-24 12:41:00,
2013-06-24 08:46:00,83.8,62.1,30.45,North,0,0.0,0.0,48,0.00,CLR,SCT,0.00,WeatherDisplay:10.37,2013-06-24 12:46:00,
2013-06-24 08:51:00,84.0,61.0,30.45,North,0,0.0,0.0,46,0.00,CLR,SCT,0.00,WeatherDisplay:10.37,2013-06-24 12:51:00,
2013-06-24 08:56:00,84.2,61.2,30.45,North,0,0.0,0.0,46,0.00,CLR,SCT,0.00,WeatherDisplay:10.37,2013-06-24 12:56:00,
2013-06-24 09:01:00,84.2,61.2,30.45,North,0,0.0,0.0,46,0.00,CLR,SCT,0.00,WeatherDisplay:10.37,2013-06-24 13:01:00,
2013-06-24 09:06:00,84.6,61.5,30.45,North,0,0.0,0.0,46,0.00,CLR,SCT,0.00,WeatherDisplay:10.37,2013-06-24 13:06:00,
2013-06-24 09:11:00,84.6,60.9,30.45,North,0,0.0,0.0,45,0.00,CLR,SCT,0.00,WeatherDisplay:10.37,2013-06-24 13:11:00,
2013-06-24 09:16:00,84.7,61.7,30.45,North,0,0.0,0.0,46,0.00,CLR,SCT,0.00,WeatherDisplay:10.37,2013-06-24 13:16:00,
2013-06-24 09:22:00,84.9,61.8,30.45,North,0,0.0,0.0,46,0.00,CLR,SCT,0.00,WeatherDisplay:10.37,2013-06-24 13:22:00,
2013-06-24 09:27:00,84.7,61.0,30.45,North,0,0.0,0.0,45,0.00,CLR,SCT,0.00,WeatherDisplay:10.37,2013-06-24 13:27:00,
2013-06-24 09:33:00,84.7,61.0,30.45,North,0,0.0,0.0,45,0.00,CLR,SCT,0.00,WeatherDisplay:10.37,2013-06-24 13:33:00,
2013-06-24 09:38:00,85.8,62.6,30.44,North,0,0.0,0.0,46,0.00,CLR,SCT,0.00,WeatherDisplay:10.37,2013-06-24 13:38:00,
2013-06-24 09:43:00,85.8,62.6,30.44,North,0,0.0,0.0,46,0.00,CLR,SCT,0.00,WeatherDisplay:10.37,2013-06-24 13:43:00,
2013-06-24 09:50:00,85.6,63.1,30.44,North,0,0.0,0.0,47,0.00,CLR,SCT,0.00,WeatherDisplay:10.37,2013-06-24 13:50:00,
2013-06-24 09:55:00,85.6,63.1,30.46,North,0,0.0,0.0,47,0.00,CLR,SCT,0.00,WeatherDisplay:10.37,2013-06-24 13:55:00,
2013-06-24 10:00:00,85.5,62.9,30.46,North,0,0.0,0.0,47,0.00,CLR,SCT,0.00,WeatherDisplay:10.37,2013-06-24 14:00:00,
2013-06-24 10:05:00,85.6,63.1,30.46,North,0,0.0,0.0,47,0.00,CLR,SCT,0.00,WeatherDisplay:10.37,2013-06-24 14:05:00,
2013-06-24 10:11:00,85.5,62.9,30.46,North,0,0.0,0.0,47,0.00,CLR,SCT,0.00,WeatherDisplay:10.37,2013-06-24 14:11:00,
2013-06-24 10:17:00,85.6,63.1,30.47,North,0,0.0,0.0,47,0.00,CLR,SCT,0.00,WeatherDisplay:10.37,2013-06-24 14:17:00,
2013-06-24 10:22:00,86.0,62.8,30.47,North,0,0.0,0.0,46,0.00,CLR,SCT,0.00,WeatherDisplay:10.37,2013-06-24 14:22:00,
2013-06-24 10:27:00,86.2,63.0,30.47,North,0,0.0,0.0,46,0.00,CLR,SCT,0.00,WeatherDisplay:10.37,2013-06-24 14:27:00,
2013-06-24 10:32:00,86.2,62.3,30.47,North,0,0.0,0.0,45,0.00,CLR,SCT,0.00,WeatherDisplay:10.37,2013-06-24 14:32:00,
2013-06-24 10:39:00,86.5,62.7,30.47,North,0,0.0,0.0,45,0.00,CLR,SCT,0.00,WeatherDisplay:10.37,2013-06-24 14:39:00,
2013-06-24 10:44:00,86.7,63.5,30.47,North,0,0.0,0.0,46,0.00,CLR,SCT,0.00,WeatherDisplay:10.37,2013-06-24 14:44:00,
2013-06-24 10:50:00,86.7,62.2,30.47,North,0,0.0,0.0,44,0.00,CLR,SCT,0.00,WeatherDisplay:10.37,2013-06-24 14:50:00,
2013-06-24 10:55:00,86.7,62.2,30.47,North,0,0.0,0.0,44,0.00,CLR,SCT,0.00,WeatherDisplay:10.37,2013-06-24 14:55:00,
2013-06-24 11:00:00,87.1,61.9,30.47,North,0,0.0,0.0,43,0.00,CLR,SCT,0.00,WeatherDisplay:10.37,2013-06-24 15:00:00,
2013-06-24 11:05:00,87.1,62.5,30.47,North,0,0.0,0.0,44,0.00,CLR,SCT,0.00,WeatherDisplay:10.37,2013-06-24 15:05:00,
2013-06-24 11:11:00,86.7,62.2,30.47,North,0,0.0,0.0,44,0.00,CLR,SCT,0.00,WeatherDisplay:10.37,2013-06-24 15:11:00,
2013-06-24 11:16:00,87.3,61.4,30.47,North,0,0.0,0.0,42,0.00,CLR,SCT,0.00,WeatherDisplay:10.37,2013-06-24 15:16:00,
2013-06-24 11:21:00,87.1,61.9,30.47,North,0,0.0,0.0,43,0.00,CLR,SCT,0.00,WeatherDisplay:10.37,2013-06-24 15:21:00,
2013-06-24 11:26:00,86.7,62.8,30.47,North,0,0.0,0.0,45,0.00,CLR,SCT,0.00,WeatherDisplay:10.37,2013-06-24 15:26:00,
2013-06-24 11:31:00,86.7,61.5,30.47,North,0,0.0,0.0,43,0.00,CLR,SCT,0.00,WeatherDisplay:10.37,2013-06-24 15:31:00,
2013-06-24 11:36:00,86.9,62.4,30.48,North,0,0.0,0.0,44,0.00,CLR,SCT,0.00,WeatherDisplay:10.37,2013-06-24 15:36:00,
2013-06-24 11:42:00,86.7,63.5,30.48,North,0,0.0,0.0,46,0.00,CLR,SCT,0.00,WeatherDisplay:10.37,2013-06-24 15:42:00,
2013-06-24 11:47:00,86.4,62.5,30.48,North,0,0.0,0.0,45,0.00,CLR,SCT,0.00,WeatherDisplay:10.37,2013-06-24 15:47:00,
2013-06-24 11:53:00,86.7,62.8,30.48,North,0,0.0,0.0,45,0.00,CLR,SCT,0.00,WeatherDisplay:10.37,2013-06-24 15:53:00,
2013-06-24 11:58:00,87.1,63.2,30.46,North,0,0.0,0.0,45,0.00,CLR,SCT,0.00,WeatherDisplay:10.37,2013-06-24 15:58:00,
2013-06-24 12:04:00,87.3,62.7,30.46,North,0,0.0,0.0,44,0.00,CLR,SCT,0.00,WeatherDisplay:10.37,2013-06-24 16:04:00,
2013-06-24 12:09:00,86.9,62.4,30.46,North,0,0.0,0.0,44,0.00,CLR,SCT,0.00,WeatherDisplay:10.37,2013-06-24 16:09:00,
2013-06-24 12:14:00,87.3,62.0,30.46,North,0,0.0,0.0,43,0.00,CLR,SCT,0.00,WeatherDisplay:10.37,2013-06-24 16:14:00,
2013-06-24 12:20:00,87.1,61.9,30.47,North,0,0.0,0.0,43,0.00,CLR,SCT,0.00,WeatherDisplay:10.37,2013-06-24 16:20:00,
2013-06-24 12:25:00,87.4,62.8,30.47,North,0,0.0,0.0,44,0.00,CLR,SCT,0.00,WeatherDisplay:10.37,2013-06-24 16:25:00,
2013-06-24 12:30:00,87.6,63.0,30.47,North,0,0.0,0.0,44,0.00,CLR,SCT,0.00,WeatherDisplay:10.37,2013-06-24 16:30:00,
2013-06-24 12:35:00,87.6,62.4,30.48,North,0,0.0,0.0,43,0.00,CLR,SCT,0.00,WeatherDisplay:10.37,2013-06-24 16:35:00,
2013-06-24 12:41:00,87.8,62.5,30.48,North,0,0.0,0.0,43,0.00,CLR,SCT,0.00,WeatherDisplay:10.37,2013-06-24 16:41:00,
2013-06-24 12:46:00,88.0,62.0,30.48,North,0,0.0,0.0,42,0.00,CLR,SCT,0.00,WeatherDisplay:10.37,2013-06-24 16:46:00,
2013-06-24 12:51:00,88.3,62.3,30.48,North,0,0.0,0.0,42,0.00,CLR,SCT,0.00,WeatherDisplay:10.37,2013-06-24 16:51:00,
2013-06-24 12:56:00,88.3,60.2,30.48,North,0,0.0,0.0,39,0.00,CLR,SCT,0.00,WeatherDisplay:10.37,2013-06-24 16:56:00,
2013-06-24 13:01:00,88.2,61.5,30.48,North,0,0.0,0.0,41,0.00,CLR,SCT,0.00,WeatherDisplay:10.37,2013-06-24 17:01:00,
2013-06-24 13:07:00,88.5,61.1,30.48,North,0,0.0,0.0,40,0.00,CLR,SCT,0.00,WeatherDisplay:10.37,2013-06-24 17:07:00,
2013-06-24 13:12:00,88.5,61.1,30.48,North,0,0.0,0.0,40,0.00,CLR,SCT,0.00,WeatherDisplay:10.37,2013-06-24 17:12:00,
2013-06-24 13:17:00,88.7,60.6,30.48,North,0,0.0,0.0,39,0.00,CLR,SCT,0.00,WeatherDisplay:10.37,2013-06-24 17:17:00,
2013-06-24 13:23:00,88.9,60.0,30.48,North,0,0.0,0.0,38,0.00,CLR,SCT,0.00,WeatherDisplay:10.37,2013-06-24 17:23:00,
2013-06-24 13:28:00,89.2,60.3,30.48,North,0,0.0,0.0,38,0.00,CLR,SCT,0.00,WeatherDisplay:10.37,2013-06-24 17:28:00,
2013-06-24 13:34:00,89.4,60.5,30.48,North,0,0.0,0.0,38,0.00,CLR,SCT,0.00,WeatherDisplay:10.37,2013-06-24 17:34:00,
2013-06-24 13:39:00,89.4,60.5,30.48,North,0,0.0,0.0,38,0.00,CLR,SCT,0.00,WeatherDisplay:10.37,2013-06-24 17:39:00,
2013-06-24 13:45:00,89.6,60.6,30.48,North,0,0.0,0.0,38,0.00,CLR,SCT,0.00,WeatherDisplay:10.37,2013-06-24 17:45:00,
2013-06-24 13:50:00,89.2,61.0,30.48,North,0,0.0,0.0,39,0.00,CLR,SCT,0.00,WeatherDisplay:10.37,2013-06-24 17:50:00,
2013-06-24 13:55:00,88.9,63.5,30.48,North,0,0.0,0.0,43,0.00,CLR,SCT,0.00,WeatherDisplay:10.37,2013-06-24 17:55:00,
2013-06-24 14:00:00,88.2,64.1,30.48,North,0,0.0,0.0,45,0.00,CLR,SCT,0.00,WeatherDisplay:10.37,2013-06-24 18:00:00,
2013-06-24 14:05:00,86.7,63.5,30.48,North,0,0.0,0.0,46,0.00,CLR,SCT,0.00,WeatherDisplay:10.37,2013-06-24 18:05:00,
2013-06-24 14:11:00,87.8,64.4,30.48,North,0,0.0,0.0,46,0.00,CLR,SCT,0.00,WeatherDisplay:10.37,2013-06-24 18:11:00,
2013-06-24 14:16:00,87.8,63.2,30.47,North,0,0.0,0.0,44,0.00,CLR,SCT,0.00,WeatherDisplay:10.37,2013-06-24 18:16:00,
2013-06-24 14:21:00,86.5,62.7,30.47,North,0,0.0,0.0,45,0.00,CLR,SCT,0.00,WeatherDisplay:10.37,2013-06-24 18:21:00,
2013-06-24 14:26:00,86.4,63.1,30.47,North,0,0.0,0.0,46,0.00,CLR,SCT,0.00,WeatherDisplay:10.37,2013-06-24 18:26:00,
2013-06-24 14:31:00,86.4,63.8,30.47,North,0,0.0,0.0,47,0.00,CLR,SCT,0.00,WeatherDisplay:10.37,2013-06-24 18:31:00,
2013-06-24 14:36:00,86.5,63.9,30.47,North,0,0.0,0.0,47,0.00,CLR,SCT,0.00,WeatherDisplay:10.37,2013-06-24 18:36:00,
2013-06-24 14:41:00,86.9,64.2,30.47,North,0,0.0,0.0,47,0.00,CLR,SCT,0.00,WeatherDisplay:10.37,2013-06-24 18:41:00,
2013-06-24 14:47:00,86.7,65.3,30.47,North,0,0.0,0.0,49,0.00,CLR,SCT,0.00,WeatherDisplay:10.37,2013-06-24 18:47:00,
2013-06-24 14:52:00,87.1,65.0,30.47,North,0,0.0,0.0,48,0.00,CLR,SCT,0.00,WeatherDisplay:10.37,2013-06-24 18:52:00,
2013-06-24 14:57:00,87.4,64.1,30.47,North,0,0.0,0.0,46,0.00,CLR,SCT,0.00,WeatherDisplay:10.37,2013-06-24 18:57:00,
2013-06-24 15:03:00,87.8,64.4,30.47,North,0,0.0,0.0,46,0.00,CLR,SCT,0.00,WeatherDisplay:10.37,2013-06-24 19:03:00,
2013-06-24 15:08:00,88.2,64.1,30.47,North,0,0.0,0.0,45,0.00,CLR,SCT,0.00,WeatherDisplay:10.37,2013-06-24 19:08:00,
2013-06-24 15:13:00,88.7,63.3,30.47,North,0,0.0,0.0,43,0.00,CLR,SCT,0.00,WeatherDisplay:10.37,2013-06-24 19:13:00,
2013-06-24 15:18:00,89.1,63.7,30.47,North,0,0.0,0.0,43,0.00,CLR,SCT,0.00,WeatherDisplay:10.37,2013-06-24 19:18:00,
2013-06-24 15:23:00,89.2,63.8,30.47,North,0,0.0,0.0,43,0.00,CLR,SCT,0.00,WeatherDisplay:10.37,2013-06-24 19:23:00,
2013-06-24 15:29:00,89.4,64.0,30.47,North,0,0.0,0.0,43,0.00,CLR,SCT,0.00,WeatherDisplay:10.37,2013-06-24 19:29:00,
2013-06-24 15:34:00,89.4,64.0,30.47,North,0,0.0,0.0,43,0.00,CLR,SCT,0.00,WeatherDisplay:10.37,2013-06-24 19:34:00,
2013-06-24 15:39:00,89.2,63.8,30.45,North,0,0.0,0.0,43,0.00,CLR,SCT,0.00,WeatherDisplay:10.37,2013-06-24 19:39:00,
2013-06-24 15:45:00,89.2,63.8,30.45,North,0,0.0,0.0,43,0.00,CLR,SCT,0.00,WeatherDisplay:10.37,2013-06-24 19:45:00,
2013-06-24 15:50:00,89.8,62.2,30.45,North,0,0.0,0.0,40,0.00,CLR,SCT,0.00,WeatherDisplay:10.37,2013-06-24 19:50:00,
2013-06-24 15:56:00,89.8,62.9,30.45,North,0,0.0,0.0,41,0.00,CLR,SCT,0.00,WeatherDisplay:10.37,2013-06-24 19:56:00,
2013-06-24 16:01:00,89.6,62.8,30.45,North,0,0.0,0.0,41,0.00,CLR,SCT,0.00,WeatherDisplay:10.37,2013-06-24 20:01:00,
2013-06-24 16:06:00,90.0,63.1,30.45,North,0,0.0,0.0,41,0.00,CLR,SCT,0.00,WeatherDisplay:10.37,2013-06-24 20:06:00,
2013-06-24 16:11:00,90.0,63.1,30.45,North,0,0.0,0.0,41,0.00,CLR,SCT,0.00,WeatherDisplay:10.37,2013-06-24 20:11:00,
2013-06-24 16:16:00,90.1,63.3,30.44,North,0,0.0,0.0,41,0.00,CLR,SCT,0.00,WeatherDisplay:10.37,2013-06-24 20:16:00,
2013-06-24 16:21:00,90.0,63.1,30.44,North,0,0.0,0.0,41,0.00,CLR,SCT,0.00,WeatherDisplay:10.37,2013-06-24 20:21:00,
2013-06-24 16:26:00,90.0,63.8,30.44,North,0,0.0,0.0,42,0.00,CLR,SCT,0.00,WeatherDisplay:10.37,2013-06-24 20:26:00,
2013-06-24 16:32:00,90.5,62.2,30.44,North,0,0.0,0.0,39,0.00,CLR,SCT,0.00,WeatherDisplay:10.37,2013-06-24 20:32:00,
2013-06-24 16:37:00,90.5,62.2,30.43,North,0,0.0,0.0,39,0.00,CLR,SCT,0.00,WeatherDisplay:10.37,2013-06-24 20:37:00,
2013-06-24 16:43:00,90.1,61.1,30.43,North,0,0.0,0.0,38,0.00,CLR,SCT,0.00,WeatherDisplay:10.37,2013-06-24 20:43:00,
2013-06-24 16:48:00,90.3,61.3,30.43,North,0,0.0,0.0,38,0.00,CLR,SCT,0.00,WeatherDisplay:10.37,2013-06-24 20:48:00,
2013-06-24 16:54:00,90.3,60.5,30.43,North,0,0.0,0.0,37,0.00,CLR,SCT,0.00,WeatherDisplay:10.37,2013-06-24 20:54:00,
2013-06-24 16:59:00,90.5,61.4,30.42,North,0,0.0,0.0,38,0.00,CLR,SCT,0.00,WeatherDisplay:10.37,2013-06-24 20:59:00,
2013-06-24 17:04:00,90.1,61.8,30.42,North,0,0.0,0.0,39,0.00,CLR,SCT,0.00,WeatherDisplay:10.37,2013-06-24 21:04:00,
2013-06-24 17:10:00,90.3,61.3,30.42,North,0,0.0,0.0,38,0.00,CLR,SCT,0.00,WeatherDisplay:10.37,2013-06-24 21:10:00,
2013-06-24 17:15:00,90.1,61.1,30.42,North,0,0.0,0.0,38,0.00,CLR,SCT,0.00,WeatherDisplay:10.37,2013-06-24 21:15:00,
2013-06-24 17:21:00,91.2,62.1,30.42,North,0,0.0,0.0,38,0.00,CLR,SCT,0.00,WeatherDisplay:10.37,2013-06-24 21:21:00,
2013-06-24 17:26:00,92.3,61.5,30.42,North,0,0.0,0.0,36,0.00,CLR,SCT,0.00,WeatherDisplay:10.37,2013-06-24 21:26:00,
2013-06-24 17:31:00,92.8,61.2,30.42,North,0,0.0,0.0,35,0.00,CLR,SCT,0.00,WeatherDisplay:10.37,2013-06-24 21:31:00,
2013-06-24 17:37:00,91.8,61.0,30.41,North,0,0.0,0.0,36,0.00,CLR,SCT,0.00,WeatherDisplay:10.37,2013-06-24 21:37:00,
2013-06-24 17:42:00,91.6,60.9,30.41,North,0,0.0,0.0,36,0.00,CLR,SCT,0.00,WeatherDisplay:10.37,2013-06-24 21:42:00,
2013-06-24 17:45:00,81.0,60.6,30.35,North,0,0.0,0.0,50,0.00,CLR,SCT,0.00,WeatherDisplay:10.37,2013-06-24 21:45:00,
2013-06-24 17:47:00,91.6,60.9,30.41,North,0,0.0,0.0,36,0.00,CLR,SCT,0.00,WeatherDisplay:10.37,2013-06-24 21:47:00,
2013-06-24 17:52:00,91.0,61.1,30.41,North,0,0.0,0.0,37,0.00,CLR,SCT,0.00,WeatherDisplay:10.37,2013-06-24 21:52:00,
2013-06-24 17:57:00,91.4,61.5,30.40,North,0,0.0,0.0,37,0.00,CLR,SCT,0.00,WeatherDisplay:10.37,2013-06-24 21:57:00,
2013-06-24 18:00:00,81.0,60.6,30.35,North,0,0.0,0.0,50,0.00,CLR,SCT,0.00,WeatherDisplay:10.37,2013-06-24 22:00:00,
2013-06-24 18:03:00,91.8,61.0,30.40,North,0,0.0,0.0,36,0.00,CLR,SCT,0.00,WeatherDisplay:10.37,2013-06-24 22:03:00,
2013-06-24 18:09:00,91.6,60.9,30.40,North,0,0.0,0.0,36,0.00,CLR,SCT,0.00,WeatherDisplay:10.37,2013-06-24 22:09:00,
2013-06-24 18:14:00,92.0,61.2,30.40,North,0,0.0,0.0,36,0.00,CLR,SCT,0.00,WeatherDisplay:10.37,2013-06-24 22:14:00,
2013-06-24 18:15:00,81.0,60.6,30.35,North,0,0.0,0.0,50,0.00,CLR,SCT,0.00,WeatherDisplay:10.37,2013-06-24 22:15:00,
2013-06-24 18:19:00,95.0,62.2,30.41,North,0,0.0,0.0,34,0.00,CLR,SCT,0.00,WeatherDisplay:10.37,2013-06-24 22:19:00,
2013-06-24 18:25:00,99.0,62.1,30.41,North,0,0.0,0.0,30,0.00,CLR,SCT,0.00,WeatherDisplay:10.37,2013-06-24 22:25:00,
2013-06-24 18:30:00,104.4,59.2,30.41,North,0,0.0,0.0,23,0.00,CLR,SCT,0.00,WeatherDisplay:10.37,2013-06-24 22:30:00,
2013-06-24 18:35:00,103.3,57.0,30.41,North,0,0.0,0.0,22,0.00,CLR,SCT,0.00,WeatherDisplay:10.37,2013-06-24 22:35:00,
2013-06-24 18:41:00,105.3,56.0,30.41,North,0,0.0,0.0,20,0.00,CLR,SCT,0.00,WeatherDisplay:10.37,2013-06-24 22:41:00,
2013-06-24 18:45:00,80.6,60.2,30.34,North,0,0.0,0.0,50,0.00,CLR,SCT,0.00,WeatherDisplay:10.37,2013-06-24 22:45:00,
2013-06-24 18:46:00,102.6,56.5,30.41,North,0,0.0,0.0,22,0.00,CLR,SCT,0.00,WeatherDisplay:10.37,2013-06-24 22:46:00,
2013-06-24 18:51:00,96.1,55.7,30.41,North,0,0.0,0.0,26,0.00,CLR,SCT,0.00,WeatherDisplay:10.37,2013-06-24 22:51:00,
2013-06-24 18:56:00,93.6,58.4,30.40,North,0,0.0,0.0,31,0.00,CLR,SCT,0.00,WeatherDisplay:10.37,2013-06-24 22:56:00,
2013-06-24 19:00:00,80.6,60.2,30.34,North,0,0.0,0.0,50,0.00,CLR,SCT,0.00,WeatherDisplay:10.37,2013-06-24 23:00:00,
2013-06-24 19:01:00,91.8,58.6,30.40,North,0,0.0,0.0,33,0.00,CLR,SCT,0.00,WeatherDisplay:10.37,2013-06-24 23:01:00,
2013-06-24 19:07:00,90.5,59.9,30.40,North,0,0.0,0.0,36,0.00,CLR,SCT,0.00,WeatherDisplay:10.37,2013-06-24 23:07:00,
2013-06-24 19:12:00,90.3,60.5,30.40,North,0,0.0,0.0,37,0.00,CLR,SCT,0.00,WeatherDisplay:10.37,2013-06-24 23:12:00,
2013-06-24 19:15:00,80.6,60.2,30.34,North,0,0.0,0.0,50,0.00,CLR,SCT,0.00,WeatherDisplay:10.37,2013-06-24 23:15:00,
2013-06-24 19:17:00,90.0,60.2,30.38,North,0,0.0,0.0,37,0.00,CLR,SCT,0.00,WeatherDisplay:10.37,2013-06-24 23:17:00,
2013-06-24 19:23:00,89.2,59.6,30.38,North,0,0.0,0.0,37,0.00,CLR,SCT,0.00,WeatherDisplay:10.37,2013-06-24 23:23:00,
2013-06-24 19:28:00,88.5,60.4,30.38,North,0,0.0,0.0,39,0.00,CLR,SCT,0.00,WeatherDisplay:10.37,2013-06-24 23:28:00,
2013-06-24 19:30:00,80.6,60.2,30.34,North,0,0.0,0.0,50,0.00,CLR,SCT,0.00,WeatherDisplay:10.37,2013-06-24 23:30:00,
2013-06-24 19:33:00,88.2,60.1,30.38,North,0,0.0,0.0,39,0.00,CLR,SCT,0.00,WeatherDisplay:10.37,2013-06-24 23:33:00,
2013-06-24 19:38:00,87.6,59.6,30.39,North,0,0.0,0.0,39,0.00,CLR,SCT,0.00,WeatherDisplay:10.37,2013-06-24 23:38:00,
2013-06-24 19:43:00,87.4,60.2,30.39,North,0,0.0,0.0,40,0.00,CLR,SCT,0.00,WeatherDisplay:10.37,2013-06-24 23:43:00,
2013-06-24 19:45:00,81.0,62.2,30.34,North,0,0.0,0.0,53,0.00,CLR,SCT,0.00,WeatherDisplay:10.37,2013-06-24 23:45:00,
2013-06-24 19:49:00,87.1,61.9,30.39,North,0,0.0,0.0,43,0.00,CLR,SCT,0.00,WeatherDisplay:10.37,2013-06-24 23:49:00,
2013-06-24 19:54:00,86.7,60.9,30.39,North,0,0.0,0.0,42,0.00,CLR,SCT,0.00,WeatherDisplay:10.37,2013-06-24 23:54:00,
2013-06-24 19:59:00,86.5,62.0,30.38,North,0,0.0,0.0,44,0.00,CLR,SCT,0.00,WeatherDisplay:10.37,2013-06-24 23:59:00,
2013-06-24 20:00:00,81.0,62.2,30.34,North,0,0.0,0.0,53,0.00,CLR,SCT,0.00,WeatherDisplay:10.37,2013-06-25 00:00:00,
2013-06-24 20:04:00,86.2,61.7,30.38,North,0,0.0,0.0,44,0.00,CLR,SCT,0.00,WeatherDisplay:10.37,2013-06-25 00:04:00,
2013-06-24 20:10:00,85.6,59.2,30.38,North,0,0.0,0.0,41,0.00,CLR,SCT,0.00,WeatherDisplay:10.37,2013-06-25 00:10:00,
2013-06-24 20:15:00,85.5,59.8,30.38,North,0,0.0,0.0,42,0.00,CLR,SCT,0.00,WeatherDisplay:10.37,2013-06-25 00:15:00,
2013-06-24 20:20:00,85.3,59.6,30.38,North,0,0.0,0.0,42,0.00,CLR,SCT,0.00,WeatherDisplay:10.37,2013-06-25 00:20:00,
2013-06-24 20:25:00,84.9,59.3,30.38,North,0,0.0,0.0,42,0.00,CLR,SCT,0.00,WeatherDisplay:10.37,2013-06-25 00:25:00,
2013-06-24 20:30:00,84.9,59.9,30.38,North,0,0.0,0.0,43,0.00,CLR,SCT,0.00,WeatherDisplay:10.37,2013-06-25 00:30:00,
2013-06-24 20:35:00,84.7,59.8,30.38,North,0,0.0,0.0,43,0.00,CLR,SCT,0.00,WeatherDisplay:10.37,2013-06-25 00:35:00,
2013-06-24 20:40:00,84.7,59.8,30.38,North,0,0.0,0.0,43,0.00,CLR,SCT,0.00,WeatherDisplay:10.37,2013-06-25 00:40:00,
2013-06-24 20:45:00,84.6,60.9,30.38,North,0,0.0,0.0,45,0.00,CLR,SCT,0.00,WeatherDisplay:10.37,2013-06-25 00:45:00,
2013-06-24 20:50:00,84.4,59.4,30.38,North,0,0.0,0.0,43,0.00,CLR,SCT,0.00,WeatherDisplay:10.37,2013-06-25 00:50:00,
2013-06-24 20:56:00,84.2,60.6,30.38,North,0,0.0,0.0,45,0.00,CLR,SCT,0.00,WeatherDisplay:10.37,2013-06-25 00:56:00,
2013-06-24 21:00:00,82.2,61.7,30.36,North,0,0.0,0.0,50,0.00,CLR,SCT,0.00,WeatherDisplay:10.37,2013-06-25 01:00:00,
2013-06-24 21:01:00,84.2,60.6,30.38,North,0,0.0,0.0,45,0.00,CLR,SCT,0.00,WeatherDisplay:10.37,2013-06-25 01:01:00,
2013-06-24 21:07:00,84.2,60.6,30.38,North,0,0.0,0.0,45,0.00,CLR,SCT,0.00,WeatherDisplay:10.37,2013-06-25 01:07:00,
2013-06-24 21:12:00,84.0,61.0,30.38,North,0,0.0,0.0,46,0.00,CLR,SCT,0.00,WeatherDisplay:10.37,2013-06-25 01:12:00,
2013-06-24 21:15:00,82.2,61.7,30.36,North,0,0.0,0.0,50,0.00,CLR,SCT,0.00,WeatherDisplay:10.37,2013-06-25 01:15:00,
2013-06-24 21:17:00,84.0,61.0,30.38,North,0,0.0,0.0,46,0.00,CLR,SCT,0.00,WeatherDisplay:10.37,2013-06-25 01:17:00,
2013-06-24 21:23:00,83.8,61.5,30.38,North,0,0.0,0.0,47,0.00,CLR,SCT,0.00,WeatherDisplay:10.37,2013-06-25 01:23:00,
2013-06-24 21:28:00,83.7,60.7,30.38,North,0,0.0,0.0,46,0.00,CLR,SCT,0.00,WeatherDisplay:10.37,2013-06-25 01:28:00,
2013-06-24 21:30:00,82.2,61.7,30.36,North,0,0.0,0.0,50,0.00,CLR,SCT,0.00,WeatherDisplay:10.37,2013-06-25 01:30:00,
2013-06-24 21:33:00,83.7,60.7,30.38,North,0,0.0,0.0,46,0.00,CLR,SCT,0.00,WeatherDisplay:10.37,2013-06-25 01:33:00,
2013-06-24 21:39:00,83.7,60.7,30.38,North,0,0.0,0.0,46,0.00,CLR,SCT,0.00,WeatherDisplay:10.37,2013-06-25 01:39:00,
2013-06-24 21:44:00,83.5,60.5,30.38,North,0,0.0,0.0,46,0.00,CLR,SCT,0.00,WeatherDisplay:10.37,2013-06-25 01:44:00,
2013-06-24 21:45:00,84.4,63.7,30.40,North,0,0.0,0.0,50,0.00,CLR,SCT,0.00,WeatherDisplay:10.37,2013-06-25 01:45:00,
2013-06-24 21:49:00,83.5,60.5,30.38,North,0,0.0,0.0,46,0.00,CLR,SCT,0.00,WeatherDisplay:10.37,2013-06-25 01:49:00,
2013-06-24 21:54:00,83.3,60.4,30.38,North,0,0.0,0.0,46,0.00,CLR,SCT,0.00,WeatherDisplay:10.37,2013-06-25 01:54:00,
2013-06-24 22:00:00,83.3,59.7,30.38,North,0,0.0,0.0,45,0.00,CLR,SCT,0.00,WeatherDisplay:10.37,2013-06-25 02:00:00,
2013-06-24 22:05:00,83.1,59.6,30.38,North,0,0.0,0.0,45,0.00,CLR,SCT,0.00,WeatherDisplay:10.37,2013-06-25 02:05:00,
2013-06-24 22:10:00,83.1,59.6,30.38,North,0,0.0,0.0,45,0.00,CLR,SCT,0.00,WeatherDisplay:10.37,2013-06-25 02:10:00,
2013-06-24 22:15:00,83.1,59.6,30.38,North,0,0.0,0.0,45,0.00,CLR,SCT,0.00,WeatherDisplay:10.37,2013-06-25 02:15:00,
2013-06-24 22:21:00,83.1,59.6,30.38,North,0,0.0,0.0,45,0.00,CLR,SCT,0.00,WeatherDisplay:10.37,2013-06-25 02:21:00,
2013-06-24 22:26:00,83.1,60.2,30.38,North,0,0.0,0.0,46,0.00,CLR,SCT,0.00,WeatherDisplay:10.37,2013-06-25 02:26:00,
2013-06-24 22:30:00,84.4,63.7,30.40,North,0,0.0,0.0,50,0.00,CLR,SCT,0.00,WeatherDisplay:10.37,2013-06-25 02:30:00,
2013-06-24 22:31:00,83.1,60.2,30.38,North,0,0.0,0.0,46,0.00,CLR,SCT,0.00,WeatherDisplay:10.37,2013-06-25 02:31:00,
2013-06-24 22:37:00,82.9,60.0,30.38,North,0,0.0,0.0,46,0.00,CLR,SCT,0.00,WeatherDisplay:10.37,2013-06-25 02:37:00,
2013-06-24 22:42:00,82.9,60.0,30.38,North,0,0.0,0.0,46,0.00,CLR,SCT,0.00,WeatherDisplay:10.37,2013-06-25 02:42:00,
2013-06-24 22:45:00,84.9,64.2,30.41,North,0,0.0,0.0,50,0.00,CLR,SCT,0.00,WeatherDisplay:10.37,2013-06-25 02:45:00,
2013-06-24 22:48:00,82.9,59.4,30.38,North,0,0.0,0.0,45,0.00,CLR,SCT,0.00,WeatherDisplay:10.37,2013-06-25 02:48:00,
2013-06-24 22:53:00,82.8,59.9,30.38,North,0,0.0,0.0,46,0.00,CLR,SCT,0.00,WeatherDisplay:10.37,2013-06-25 02:53:00,
2013-06-24 22:58:00,82.8,59.9,30.39,North,0,0.0,0.0,46,0.00,CLR,SCT,0.00,WeatherDisplay:10.37,2013-06-25 02:58:00,
2013-06-24 23:00:00,84.9,64.2,30.41,North,0,0.0,0.0,50,0.00,CLR,SCT,0.00,WeatherDisplay:10.37,2013-06-25 03:00:00,
2013-06-24 23:04:00,82.8,59.9,30.39,North,0,0.0,0.0,46,0.00,CLR,SCT,0.00,WeatherDisplay:10.37,2013-06-25 03:04:00,
2013-06-24 23:09:00,82.8,59.9,30.39,North,0,0.0,0.0,46,0.00,CLR,SCT,0.00,WeatherDisplay:10.37,2013-06-25 03:09:00,
2013-06-24 23:14:00,82.8,60.5,30.40,North,0,0.0,0.0,47,0.00,CLR,SCT,0.00,WeatherDisplay:10.37,2013-06-25 03:14:00,
2013-06-24 23:15:00,84.9,64.2,30.41,North,0,0.0,0.0,50,0.00,CLR,SCT,0.00,WeatherDisplay:10.37,2013-06-25 03:15:00,
2013-06-24 23:21:00,82.8,59.9,30.40,North,0,0.0,0.0,46,0.00,CLR,SCT,0.00,WeatherDisplay:10.37,2013-06-25 03:21:00,
2013-06-24 23:26:00,82.6,60.3,30.40,North,0,0.0,0.0,47,0.00,CLR,SCT,0.00,WeatherDisplay:10.37,2013-06-25 03:26:00,
2013-06-24 23:30:00,84.9,64.2,30.41,North,0,0.0,0.0,50,0.00,CLR,SCT,0.00,WeatherDisplay:10.37,2013-06-25 03:30:00,
2013-06-24 23:31:00,82.6,60.3,30.40,North,0,0.0,0.0,47,0.00,CLR,SCT,0.00,WeatherDisplay:10.37,2013-06-25 03:31:00,
2013-06-24 23:37:00,82.6,59.7,30.41,North,0,0.0,0.0,46,0.00,CLR,SCT,0.00,WeatherDisplay:10.37,2013-06-25 03:37:00,
2013-06-24 23:42:00,82.6,59.7,30.41,North,0,0.0,0.0,46,0.00,CLR,SCT,0.00,WeatherDisplay:10.37,2013-06-25 03:42:00,
2013-06-24 23:45:00,87.1,65.0,30.42,North,0,0.0,0.0,48,0.00,CLR,SCT,0.00,WeatherDisplay:10.37,2013-06-25 03:45:00,
2013-06-24 23:48:00,82.4,59.5,30.41,North,0,0.0,0.0,46,0.00,CLR,SCT,0.00,WeatherDisplay:10.37,2013-06-25 03:48:00,
2013-06-24 23:53:00,82.4,60.1,30.41,North,0,0.0,0.0,47,0.00,CLR,SCT,0.00,WeatherDisplay:10.37,2013-06-25 03:53:00,
2013-06-24 23:59:00,82.4,60.1,30.40,North,0,0.0,0.0,47,0.00,CLR,SCT,0.00,WeatherDisplay:10.37,2013-06-25 03:59:00,